Home   Weather   Völkermarkt   Past weeks

Flag for Austria Past Weather in Völkermarkt, Carinthia, Austria — Yesterday and Last 2 Weeks

Now
31 °F

Passing clouds.


Feels Like: N/A
Forecast: 23 / 43 °F
Wind: N/A

Location: Klagenfurt-Flughafen

Current Time: Dec 9, 2016 at 6:42:05 pm

Latest Report: Dec 9, 2016 at 6:00 pm


Visibility: 7 mi

Pressure: 30.49 "Hg

Humidity: 83%

Dew Point: 26 °F

Location of VölkermarktLocation

Past Weather in Völkermarkt — Graph

°F

Völkermarkt Temperature Yesterday

Maximum temperature yesterday: 38 °F (at 2:00 pm)
Minimum temperature yesterday: 20 °F (at 8:00 am)
Average temperature yesterday: 27 °F

High & Low Weather Summary for the Past Weeks

 TemperatureHumidityPressure
High54 °F (Dec 2, 3:00 pm)100% (Nov 24, 5:00 pm)30.78 "Hg (Nov 24, 5:00 pm)
Low18 °F (Dec 7, 7:00 am)28% (Nov 29, 3:00 pm)29.86 "Hg (Nov 27, 2:00 pm)
Average33 °F82%30.33 "Hg
* Reported Nov 24 5:00 pm — Dec 9 5:00 pm, Völkermarkt, Weather by CustomWeather, © 2016

Note: Actual official high and low records may vary slightly from our data, if they occured in-between our weather recording intervals... More about our weather records

Advertising

Völkermarkt Weather History for the Previous 24 Hours

Scroll right to see more
 ConditionsComfort  
Time TempWeatherWind HumidityBarometerVisibility
5:00 pm
Fri, Dec 9
33 °FPassing clouds.N/A81%30.47 "Hg13 mi
4:00 pm37 °FPartly sunny.N/A70%30.46 "Hg12 mi
3:00 pm38 °FPartly sunny.N/A68%30.45 "Hg14 mi
2:00 pm41 °FScattered clouds.N/A59%30.45 "Hg16 mi
1:00 pm39 °FScattered clouds.N/A62%30.48 "Hg15 mi
12:00 pm37 °FScattered clouds.N/A66%30.50 "Hg12 mi
11:00 am32 °FPassing clouds.N/A79%30.54 "Hg9 mi
10:00 am29 °FPassing clouds.N/A84%30.56 "Hg7 mi
9:00 am24 °FPassing clouds.N/A92%30.58 "Hg7 mi
8:00 am21 °FPassing clouds.N/A92%30.59 "Hg6 mi
7:00 am22 °FClear.N/A93%30.59 "Hg5 mi
6:00 am22 °FCold.N/A92%30.58 "Hg4 mi
5:00 am24 °FPassing clouds.N/A91%30.57 "Hg7 mi
4:00 am25 °FPassing clouds.N/A91%30.57 "Hg9 mi
3:00 am25 °FOvercast.N/A91%30.56 "Hg8 mi
2:00 am25 °FPassing clouds.N/A91%30.58 "Hg8 mi
1:00 am25 °FCold.N/A91%30.60 "Hg6 mi
12:00 am25 °FChilly.N/A91%30.60 "Hg7 mi
11:00 pm
Thu, Dec 8
26 °FPassing clouds.N/A91%30.62 "Hg7 mi
10:00 pm26 °FPassing clouds.N/A90%30.61 "Hg6 mi
8:00 pm28 °FPassing clouds.N/A87%30.62 "Hg7 mi
7:00 pm29 °FClear.N/A86%30.62 "Hg8 mi
6:00 pm30 °FClear.N/A84%30.61 "Hg9 mi
Weather by CustomWeather, © 2016

See weather overviewHow to use our weather pages